Bekescsaba, Hungary

6:34 AM CEST on May 27, 2018 (GMT +0200)
Bekescsaba

Weather History for LHBC - April, 2014

Change the Weather History Date:

Tuesday, April 15, 2014

  Actual Average (LRAR) Record (LRAR)
Temperature  
Mean Temperature 48 °F -  
Max Temperature 55 °F 60 °F 76 °F (2018)
Min Temperature 38 °F 41 °F 32 °F (1997)
Degree Days  
Heating Degree Days 18    
Moisture  
Dew Point 38 °F    
Average Humidity 66    
Maximum Humidity 92    
Minimum Humidity 34    
Precipitation  
Precipitation 0.00 in - - ()
Sea Level Pressure  
Sea Level Pressure 29.90 in    
Wind  
Wind Speed 8 mph ()    
Max Wind Speed 16 mph    
Max Gust Speed -    
Visibility 7.8 miles    
Events Rain    
Averages and records for this station are not official NWS values.
T = Trace of Precipitation, MM = Missing Value Source: Averaged Metar Reports

Daily Weather History Graph

Daily Weather History Graph

Search for Another Location

Airport or City:

Astronomy

Apr. 15, 2014 Rise Set
Actual Time 5:48 AM CEST 7:23 PM CEST
Civil Twilight 5:16 AM CEST 7:54 PM CEST
Nautical Twilight 4:38 AM CEST 8:33 PM CEST
Astronomical Twilight 3:56 AM CEST 9:15 PM CEST
Moon 7:46 PM CEST (4/15) 5:45 AM CEST (4/15)
Length of Visible Light 14h 37m
Length of Day
13h 34m
Full, 100% of the Moon is Illuminated
Apr 15
Full
Apr 22
Last Quarter
Apr 29
New
May 7
First Quarter
May 14
Full

Hourly Weather History & Observations

Time (CEST) Temp. Windchill Dew Point Humidity Pressure Visibility Wind Dir Wind Speed Gust Speed Precip Events Conditions
12:00 AM 47 °F - 46 °F 92% 29.85 in - SW 6.7 mph - -  
1:00 AM 47 °F - 43 °F 80% 29.83 in - WNW 6.7 mph - -  
2:00 AM 45 °F - 41 °F 82% 29.82 in - WNW 4.5 mph - -  
3:00 AM 45 °F - 41 °F 79% 29.83 in - West 6.7 mph - -  
4:00 AM 43 °F - 40 °F 85% 29.83 in - West 4.5 mph - -  
4:45 AM 42.8 °F 37.0 °F 37.4 °F 81% 29.86 in - WNW 10.4 mph - N/A   Clear
5:00 AM 43 °F - 38 °F 75% 29.86 in 9 mi WNW 11.2 mph - -   Partly Cloudy
5:45 AM 41.0 °F 35.2 °F 37.4 °F 87% 29.86 in - WNW 9.2 mph - N/A   Clear
6:00 AM 41 °F - 36 °F 78% 29.86 in 16 mi WNW 8.9 mph - -   Partly Cloudy
7:00 AM 41 °F - 36 °F 78% 29.88 in 22 mi NW 8.9 mph - -   Partly Cloudy
7:45 AM 41.0 °F 34.3 °F 37.4 °F 87% 29.89 in 6.2 mi WNW 11.5 mph - N/A   Mostly Cloudy
8:00 AM 42 °F - 37 °F 76% 29.89 in 31 mi WNW 11.2 mph - -   Partly Cloudy
9:00 AM 42 °F - 38 °F 79% 29.91 in - WNW 15.7 mph - -  
10:00 AM 46 °F - 40 °F 72% 29.91 in - NW 15.7 mph - -  
10:45 AM 50.0 °F - 41.0 °F 71% 29.92 in 6.2 mi NW 11.5 mph - N/A   Scattered Clouds
11:00 AM 51 °F - 41 °F 60% 29.91 in 31 mi NW 11.2 mph - -   Partly Cloudy
12:00 PM 52 °F - 38 °F 48% 29.92 in - NNW 6.7 mph - -  
1:00 PM 52 °F - 37 °F 46% 29.92 in 34 mi NW 6.7 mph - - Rain Light Rain Showers
1:45 PM 53.6 °F - 37.4 °F 54% 29.92 in 6.2 mi North 4.6 mph - N/A   Mostly Cloudy
2:00 PM 53 °F - 37 °F 44% 29.92 in 34 mi North 4.5 mph - -   Partly Cloudy
2:45 PM 55.4 °F - 35.6 °F 47% 29.92 in 6.2 mi West 10.4 mph - N/A   Mostly Cloudy
3:00 PM 55 °F - 36 °F 37% 29.91 in 37 mi West 11.2 mph - -   Partly Cloudy
4:00 PM 55 °F - 35 °F 34% 29.90 in - West 11.2 mph - -  
4:45 PM 55.4 °F - 33.8 °F 44% 29.92 in 6.2 mi WNW 12.7 mph - N/A   Mostly Cloudy
5:00 PM 55 °F - 35 °F 34% 29.91 in 37 mi WNW 11.2 mph - -   Partly Cloudy
6:00 PM 51 °F - 36 °F 46% 29.93 in - NNW 13.4 mph - -  
7:00 PM 50 °F - 36 °F 48% 29.94 in - NW 8.9 mph - -  
7:45 PM 44.6 °F 40.2 °F 35.6 °F 71% 29.95 in 6.2 mi NNW 8.1 mph - N/A   Mostly Cloudy
8:00 PM 45 °F - 35 °F 58% 29.95 in 31 mi NNW 8.9 mph - -   Partly Cloudy
9:00 PM 43 °F - 36 °F 70% 29.97 in - NNE 6.7 mph - -  
10:00 PM 40 °F - 35 °F 75% 29.99 in - North 2.2 mph - -  
11:00 PM 38 °F - 36 °F 87% 29.99 in - NNW 4.5 mph - -